[keps] orbs08241.amsat
Ray Hoad
r.hoad at att.net
Thu Aug 28 14:15:42 PDT 2008
SB KEPS @ AMSAT $ORB08241.O
Orbital Elements 08241.OSCAR
HR AMSAT ORBITAL ELEMENTS FOR OSCAR SATELLITES
FROM WA5QGD FORT WORTH,TX August 28, 2008
Send Subscribe/unsubscribe to KEPS at
http://www.amsat.org/mailman/listinfo/keps
BID: ORB08241.O
TO ALL RADIO AMATEURS BT
Satellite: AO-07
Catalog number: 07530
Epoch time: 08241.51847692
Element set: 263
Inclination: 101.4624 deg
RA of node: 270.5848 deg
Eccentricity: 0.0012200
Arg of perigee: 120.4708 deg
Mean anomaly: 239.7570 deg
Mean motion: 12.53574023 rev/day
Decay rate: -2.7e-07 rev/day^2
Epoch rev: 54604
Checksum: 274
Satellite: AO-10
Catalog number: 14129
Epoch time: 08241.07191244
Element set: 552
Inclination: 026.0248 deg
RA of node: 198.4493 deg
Eccentricity: 0.5968853
Arg of perigee: 152.2471 deg
Mean anomaly: 259.4565 deg
Mean motion: 02.05868533 rev/day
Decay rate: -1.27e-06 rev/day^2
Epoch rev: 18958
Checksum: 327
Satellite: UO-11
Catalog number: 14781
Epoch time: 08240.86731438
Element set: 0753
Inclination: 098.1505 deg
RA of node: 275.9542 deg
Eccentricity: 0.0008647
Arg of perigee: 196.8312 deg
Mean anomaly: 163.2639 deg
Mean motion: 14.79659898 rev/day
Decay rate: 3.8e-07 rev/day^2
Epoch rev: 31445
Checksum: 344
Satellite: RS-15
Catalog number: 23439
Epoch time: 08240.85404734
Element set: 0168
Inclination: 064.8157 deg
RA of node: 019.1546 deg
Eccentricity: 0.0146866
Arg of perigee: 109.1248 deg
Mean anomaly: 252.5640 deg
Mean motion: 11.27553005 rev/day
Decay rate: -3.9e-07 rev/day^2
Epoch rev: 56304
Checksum: 299
Satellite: FO-29
Catalog number: 24278
Epoch time: 08240.93015461
Element set: 0859
Inclination: 098.5812 deg
RA of node: 147.8146 deg
Eccentricity: 0.0351219
Arg of perigee: 029.9567 deg
Mean anomaly: 332.1172 deg
Mean motion: 13.52939033 rev/day
Decay rate: -4.8e-07 rev/day^2
Epoch rev: 59409
Checksum: 330
Satellite: SO-33
Catalog number: 25509
Epoch time: 08240.48585004
Element set: 270
Inclination: 031.4353 deg
RA of node: 273.2104 deg
Eccentricity: 0.0355243
Arg of perigee: 290.5260 deg
Mean anomaly: 065.7586 deg
Mean motion: 14.28221588 rev/day
Decay rate: 6.9e-07 rev/day^2
Epoch rev: 51381
Checksum: 290
Satellite: AO-40
Catalog number: 26609
Epoch time: 08238.07061245
Element set: 108
Inclination: 007.7153 deg
RA of node: 064.6904 deg
Eccentricity: 0.7931208
Arg of perigee: 115.6815 deg
Mean anomaly: 341.3437 deg
Mean motion: 01.25584265 rev/day
Decay rate: -3.60e-06 rev/day^2
Epoch rev: 3590
Checksum: 291
Satellite: VO-52
Catalog number: 28650
Epoch time: 08240.59464305
Element set: 16
Inclination: 097.7831 deg
RA of node: 305.2242 deg
Eccentricity: 0.0025974
Arg of perigee: 267.8628 deg
Mean anomaly: 091.9615 deg
Mean motion: 14.81491349 rev/day
Decay rate: -2.70e-06 rev/day^2
Epoch rev: 17917
Checksum: 324
Satellite: PO-63
Catalog number: 29712
Epoch time: 08241.21687536
Element set: 748
Inclination: 097.8698 deg
RA of node: 298.0334 deg
Eccentricity: 0.0014820
Arg of perigee: 143.6730 deg
Mean anomaly: 216.5491 deg
Mean motion: 14.80248824 rev/day
Decay rate: 3.48e-06 rev/day^2
Epoch rev: 8812
Checksum: 330
/EX
SB KEPS @ AMSAT $ORB08241.D
Orbital Elements 08241.MICROS
HR AMSAT ORBITAL ELEMENTS FOR THE MICROSATS
FROM WA5QGD FORT WORTH,TX August 28, 2008
Send Subscribe/unsubscribe to KEPS at
http://www.amsat.org/mailman/listinfo/keps
BID: ORB08241.D
TO ALL RADIO AMATEURS BT
Satellite: AO-16
Catalog number: 20439
Epoch time: 08241.46915984
Element set: 404
Inclination: 098.2373 deg
RA of node: 217.8615 deg
Eccentricity: 0.0010570
Arg of perigee: 327.1897 deg
Mean anomaly: 032.8632 deg
Mean motion: 14.31801366 rev/day
Decay rate: 1.5e-07 rev/day^2
Epoch rev: 97126
Checksum: 305
Satellite: LO-19
Catalog number: 20442
Epoch time: 08240.52629685
Element set: 327
Inclination: 098.2064 deg
RA of node: 225.2837 deg
Eccentricity: 0.0011426
Arg of perigee: 326.8445 deg
Mean anomaly: 033.2037 deg
Mean motion: 14.32039017 rev/day
Decay rate: -1.8e-07 rev/day^2
Epoch rev: 97128
Checksum: 291
Satellite: AO-27
Catalog number: 22825
Epoch time: 08241.51821973
Element set: 51
Inclination: 098.3908 deg
RA of node: 198.8513 deg
Eccentricity: 0.0009145
Arg of perigee: 052.5009 deg
Mean anomaly: 307.6987 deg
Mean motion: 14.29245589 rev/day
Decay rate: -4.0e-08 rev/day^2
Epoch rev: 77810
Checksum: 326
Satellite: IO-26
Catalog number: 22826
Epoch time: 08240.64974240
Element set: 0760
Inclination: 098.3840 deg
RA of node: 198.8921 deg
Eccentricity: 0.0009805
Arg of perigee: 049.8884 deg
Mean anomaly: 310.3152 deg
Mean motion: 14.29494854 rev/day
Decay rate: 1.0e-08 rev/day^2
Epoch rev: 77807
Checksum: 331
Satellite: PO-28
Catalog number: 22829
Epoch time: 08241.51075381
Element set: 22
Inclination: 098.3717 deg
RA of node: 200.8120 deg
Eccentricity: 0.0010239
Arg of perigee: 020.5184 deg
Mean anomaly: 339.6397 deg
Mean motion: 14.30195605 rev/day
Decay rate: 5.0e-08 rev/day^2
Epoch rev: 77846
Checksum: 288
Satellite: GO-32
Catalog number: 25397
Epoch time: 08240.75337106
Element set: 682
Inclination: 098.3601 deg
RA of node: 272.3647 deg
Eccentricity: 0.0001877
Arg of perigee: 058.0514 deg
Mean anomaly: 302.0849 deg
Mean motion: 14.23147907 rev/day
Decay rate: 9.3e-07 rev/day^2
Epoch rev: 52639
Checksum: 309
Satellite: NO-44
Catalog number: 26931
Epoch time: 08240.85885409
Element set: 0963
Inclination: 067.0518 deg
RA of node: 100.0216 deg
Eccentricity: 0.0007240
Arg of perigee: 265.8194 deg
Mean anomaly: 094.2046 deg
Mean motion: 14.29529697 rev/day
Decay rate: -3.11e-06 rev/day^2
Epoch rev: 36065
Checksum: 308
Satellite: SO-50
Catalog number: 27607
Epoch time: 08240.64416830
Element set: 0685
Inclination: 064.5577 deg
RA of node: 196.6192 deg
Eccentricity: 0.0086292
Arg of perigee: 265.5694 deg
Mean anomaly: 093.5545 deg
Mean motion: 14.71376988 rev/day
Decay rate: 9.1e-07 rev/day^2
Epoch rev: 30548
Checksum: 350
Satellite: CO-55
Catalog number: 27844
Epoch time: 08240.64453059
Element set: 0383
Inclination: 098.7174 deg
RA of node: 247.9236 deg
Eccentricity: 0.0008909
Arg of perigee: 272.6065 deg
Mean anomaly: 087.4091 deg
Mean motion: 14.20593292 rev/day
Decay rate: 6.0e-08 rev/day^2
Epoch rev: 26758
Checksum: 334
Satellite: CO-57
Catalog number: 27848
Epoch time: 08240.58180017
Element set: 333
Inclination: 098.7174 deg
RA of node: 246.9445 deg
Eccentricity: 0.0009146
Arg of perigee: 277.1185 deg
Mean anomaly: 082.8946 deg
Mean motion: 14.20401437 rev/day
Decay rate: -1.6e-07 rev/day^2
Epoch rev: 26754
Checksum: 321
Satellite: AO-51
Catalog number: 28375
Epoch time: 08241.49062522
Element set: 184
Inclination: 098.0687 deg
RA of node: 261.9862 deg
Eccentricity: 0.0083661
Arg of perigee: 294.2874 deg
Mean anomaly: 064.9594 deg
Mean motion: 14.40616562 rev/day
Decay rate: -5.0e-08 rev/day^2
Epoch rev: 21881
Checksum: 331
Satellite: CO-56
Catalog number: 28941
Epoch time: 08241.43267829
Element set: 328
Inclination: 098.1119 deg
RA of node: 002.2135 deg
Eccentricity: 0.0156817
Arg of perigee: 137.9533 deg
Mean anomaly: 223.3906 deg
Mean motion: 15.60126333 rev/day
Decay rate: 3.0560e-04 rev/day^2
Epoch rev: 14129
Checksum: 299
Satellite: CP3
Catalog number: 31128
Epoch time: 08240.72931325
Element set: 0417
Inclination: 098.0334 deg
RA of node: 301.1241 deg
Eccentricity: 0.0104167
Arg of perigee: 113.5039 deg
Mean anomaly: 247.7156 deg
Mean motion: 14.51970944 rev/day
Decay rate: -4.6e-07 rev/day^2
Epoch rev: 07231
Checksum: 266
Satellite: CP4
Catalog number: 31132
Epoch time: 08240.94939387
Element set: 0398
Inclination: 098.0357 deg
RA of node: 303.8375 deg
Eccentricity: 0.0087374
Arg of perigee: 105.6918 deg
Mean anomaly: 255.3943 deg
Mean motion: 14.55137804 rev/day
Decay rate: -1.4e-07 rev/day^2
Epoch rev: 07238
Checksum: 325
Satellite: CO-65
Catalog number: 32785
Epoch time: 08241.46098518
Element set: 142
Inclination: 097.9874 deg
RA of node: 301.1841 deg
Eccentricity: 0.0013765
Arg of perigee: 261.6652 deg
Mean anomaly: 098.3002 deg
Mean motion: 14.81385805 rev/day
Decay rate: 3.0e-08 rev/day^2
Epoch rev: 1810
Checksum: 301
/EX
SB KEPS @ AMSAT $ORB08241.W
Orbital Elements 08241.WEATHER
HR AMSAT ORBITAL ELEMENTS FOR WEATHER SATELLITES
FROM WA5QGD FORT WORTH,TX August 28, 2008
Send Subscribe/unsubscribe to KEPS at
http://www.amsat.org/mailman/listinfo/keps
BID: ORB08241.W
TO ALL RADIO AMATEURS BT
Satellite: NOAA-10
Catalog number: 16969
Epoch time: 08241.49673108
Element set: 267
Inclination: 098.7218 deg
RA of node: 263.3140 deg
Eccentricity: 0.0012022
Arg of perigee: 334.7987 deg
Mean anomaly: 025.2619 deg
Mean motion: 14.27366971 rev/day
Decay rate: 4.6e-07 rev/day^2
Epoch rev: 14175
Checksum: 312
Satellite: NOAA-11
Catalog number: 19531
Epoch time: 08241.36992887
Element set: 299
Inclination: 098.7969 deg
RA of node: 329.6853 deg
Eccentricity: 0.0011065
Arg of perigee: 219.8732 deg
Mean anomaly: 140.1658 deg
Mean motion: 14.14876639 rev/day
Decay rate: 2.55e-06 rev/day^2
Epoch rev: 2811
Checksum: 345
Satellite: NOAA-12
Catalog number: 21263
Epoch time: 08241.63647697
Element set: 813
Inclination: 098.7703 deg
RA of node: 243.5915 deg
Eccentricity: 0.0011479
Arg of perigee: 277.3102 deg
Mean anomaly: 082.6771 deg
Mean motion: 14.25543733 rev/day
Decay rate: .00000000 rev/day^2
Epoch rev: 89871
Checksum: 303
Satellite: MET-3/5
Catalog number: 21655
Epoch time: 08241.51593069
Element set: 479
Inclination: 082.5525 deg
RA of node: 053.2723 deg
Eccentricity: 0.0012972
Arg of perigee: 188.1188 deg
Mean anomaly: 171.9727 deg
Mean motion: 13.17016632 rev/day
Decay rate: 5.1e-07 rev/day^2
Epoch rev: 81910
Checksum: 305
Satellite: MET-2/21
Catalog number: 22782
Epoch time: 08240.87293065
Element set: 235
Inclination: 082.5450 deg
RA of node: 054.6988 deg
Eccentricity: 0.0024076
Arg of perigee: 089.2138 deg
Mean anomaly: 271.1782 deg
Mean motion: 13.83630249 rev/day
Decay rate: 3.4e-07 rev/day^2
Epoch rev: 75704
Checksum: 312
